Location: Aalen
(48.8330°N, 10.1000°E)
Time: 19:57:07
(UTC+02:00)

S-56A Canister/Altair - Pass Details

Date: 07 August 2021
Orbit: 632 x 2500 km, 38.9° (Epoch: 19 September)

Event Time Altitude Azimuth Distance (km) Brightness Sun altitude
Rises 15:52:11 0° 249° (WSW) 5,142 12.5 45.8°
Reaches altitude 10° 15:55:18 10° 245° (WSW) 4,365 12.4 45.4°
Maximum altitude 16:07:25 55° 172° (S) 2,713 11.2 43.7°
Drops below altitude 10° 16:21:55 10° 101° (E) 5,149 11.5 41.6°
Sets 16:25:57 0° 98° (E) 6,097 11.7 41.0°
